490  
NZUS52 KFFC 252003  
RWROBS  
WEATHER ROUNDUP FOR GEORGIA  
NATIONAL WEATHER SERVICE PEACHTREE CITY GA  
400 PM EDT THU MAY 25 2017  
 
NOTE: "FAIR" INDICATES FEW OR NO CLOUDS BELOW 12,000 FEET WITH NO  
SIGNIFICANT WEATHER AND/OR S TO VISIBILITY
.  
 
* = USE WITH CAUTION. THE STATIONS MARKED WITH AN ASTERISK MAY NOT  
REPORT WEATHER SUCH AS PRECIPITATION, FOG, OR THUNDER AND ARE NOT  
QUALITY CONTROLLED BY NWS.  
 
THE REMARK "TC" DENOTES TEMPERATURE READING IN DEGREES CELSIUS.  
 
GAZ001>058-252100-  
NORTH GEORGIA  
 
CITY SKY/WX TMP DP RH WIND PRES REMARKS
 
ATLANTA MOSUNNY 72 50 45 W14G24 29.80F  
ATHENS CLOUDY 70 51 51 W12G23 29.77R  
CHAMBLEE MOSUNNY 72 47 40 W18 29.79S  
PEACHTREE CITY MOSUNNY 73 48 41 W8G20 29.82S  
ROME MOSUNNY 73 52 47 W14G21 29.78F  
WEST ATLANTA MOSUNNY 72 50 45 W12G25 29.80F  
GAINESVILLE CLOUDY 67 50 54 W18G26 29.79R  
CARTERSVILLE NOT AVBL  
 
 
CITY SKY/WX TMP DP RH WIND PRES REMARKS
 
DALTON MOSUNNY 70 50 49 W8G17 29.77S  
LAWRENCEVILLE PTSUNNY 70 50 49 W17G29 29.79S  
MARIETTA PTSUNNY 71 48 44 W16G28 29.79F  
KENNESAW PTSUNNY 70 50 49 W17G28 29.80F  
WINDER PTSUNNY 73 50 43 W12G18 29.80S  
CANTON PTSUNNY 68 43 40 W10 29.80S  
TOCCOA PTSUNNY 73 54 49 SW14G23 29.74S  
CORNELIA PTSUNNY 67 49 52 W14G28 29.77R  
CANON FAIR 70 53 55 W12G20 29.75S  
JASPER PTSUNNY 66 41 41 W16 29.83S  

 
 
GAZ059>098-102>109-252100-  
CENTRAL GEORGIA  
 
CITY SKY/WX TMP DP RH WIND PRES REMARKS
 
AUGUSTA-BUSH MOSUNNY 77 52 41 W18G26 29.74F  
AUGUSTA-DANIEL MOSUNNY 75 49 39 SW15G26 29.75F  
COLUMBUS MOSUNNY 75 49 39 W10 29.83S  
MACON MOSUNNY 75 48 38 W18G25 29.81S  
ROBINS AFB MOSUNNY 75 48 38 W18G25 29.81S  
GREENSBORO PTSUNNY 72 52 49 W6G16 29.75R  
THOMSON MOSUNNY 73 51 45 NW15 29.81S  
SANDERSVILLE FAIR N/A N/A N/A W8G22 29.79F  
THOMASTON MOSUNNY 73 41 31 W15G25 29.82F  
BUTLER N/A 78 54 44 W5 29.83F  
 
 
CITY SKY/WX TMP DP RH WIND PRES REMARKS
 
LAGRANGE MOSUNNY 73 55 52 W9G21 29.83S  
SYLVANIA MOSUNNY 75 55 49 W15G22 29.79S  
MILLEDGEVILLE FAIR 73 55 53 W7G17 29.79F  
CARROLLTON PTSUNNY 69 49 48 W12 29.86S  
AMERICUS FAIR 73 45 35 W16 29.85F  
CORDELE FAIR 80 48 32 W18 29.84S  

 
 
GAZ099>101-110>166-252100-  
SOUTH GEORGIA  
 
CITY SKY/WX TMP DP RH WIND PRES REMARKS
 
SAVANNAH MOSUNNY 81 50 33 W20 29.78S HX 80  
VALDOSTA NOT AVBL  
ALMA MOSUNNY 78 49 35 W13G30 29.82F  
ST SIMONS SUNNY 81 48 31 W16G24 29.79F HX 80  
FT STEWART PTSUNNY 76 50 40 W18G28 29.77S  
ALBANY PTSUNNY 78 51 38 W15G23 29.85F  
HUNTER AFB SUNNY 78 59 51 W14G29 29.75F HX 80  
MOODY AFB MOSUNNY 78 49 35 NW14G20 29.82F  
BRUNSWICK SUNNY 81 54 39 W16G24 29.80F HX 80  
 
 
CITY SKY/WX TMP DP RH WIND PRES REMARKS
 
BAINBRIDGE SUNNY 77 50 38 W8G14 29.85F  
MOULTRIE SUNNY 77 50 38 W9G16 29.85F  
VIDALIA MOSUNNY 75 54 46 W12G17 29.81F  
WAYCROSS MOSUNNY 82 55 39 NW14G24 29.82S HX 81  
DOUGLAS SUNNY 77 48 36 W14 29.84F  
TIFTON FAIR 75 51 42 W10G16 29.84S  
HAZELHURST FAIR 77 52 41 W7G16 29.81F  

 
 
 
CLICK HERE TO GO TO PREVIOUS BULLETINS.

The Nexlab GA Page Main Text Page